Gene Autry, OK

12:54 AM CST on February 14, 2016 (GMT -0600)
Ardmore Municipal

Weather History for KADM - February, 2013

Change the Weather History Date:

Wednesday, February 20, 2013

  Actual Average Record
Temperature  
Mean Temperature 40 °F -  
Max Temperature 46 °F 55 °F 80 °F (2005)
Min Temperature 35 °F 37 °F 30 °F (2006)
Degree Days  
Heating Degree Days 24    
Moisture  
Dew Point 34 °F    
Average Humidity 77    
Maximum Humidity 100    
Minimum Humidity 50    
Precipitation  
Precipitation 0.28 in - - ()
Sea Level Pressure  
Sea Level Pressure 30.11 in    
Wind  
Wind Speed 9 mph (SE)    
Max Wind Speed 17 mph    
Max Gust Speed 25 mph    
Visibility 10 miles    
Events Rain    
Averages and records for this station are not official NWS values.
T = Trace of Precipitation, MM = Missing Value Source: NWS Daily Summary

Daily Weather History Graph

Daily Weather History Graph

Search for Another Location

Airport or City:

Trip Planner

Search our weather history database for the weather conditions in past years. The results will help you decide how hot, cold, wet, or windy it might be!

Date:

Astronomy

Feb. 20, 2013 Rise Set
Actual Time 7:07 AM CST 6:16 PM CST
Civil Twilight 6:41 AM CST 6:42 PM CST
Nautical Twilight 6:12 AM CST 7:11 PM CST
Astronomical Twilight 5:43 AM CST 7:40 PM CST
Moon 1:46 PM CST (2/20) 3:20 AM CST (2/20)
Length of Visible Light 12h 00m
Length of Day
11h 09m
Waxing Gibbous, 76% of the Moon is Illuminated
Feb 20
Waxing Gibbous
Feb 25
Full
Mar 4
Last Quarter
Mar 11
New
Mar 19
First Quarter

Hourly Weather History & Observations

Time (CST) Temp. Windchill Dew Point Humidity Pressure Visibility Wind Dir Wind Speed Gust Speed Precip Events Conditions
12:15 AM 46.4 °F 42.4 °F 28.4 °F 50% 30.20 in 10.0 mi ESE 8.1 mph - N/A   Clear
12:35 AM 46.4 °F 41.5 °F 28.4 °F 50% 30.19 in 10.0 mi ESE 10.4 mph - N/A   Clear
12:55 AM 44.6 °F 40.2 °F 28.4 °F 53% 30.19 in 10.0 mi ESE 8.1 mph - N/A   Clear
1:15 AM 44.6 °F 41.4 °F 28.4 °F 53% 30.20 in 10.0 mi SE 5.8 mph - N/A   Clear
1:35 AM 44.6 °F 40.7 °F 28.4 °F 53% 30.20 in 10.0 mi ESE 6.9 mph - N/A   Scattered Clouds
1:55 AM 44.6 °F 41.4 °F 30.2 °F 57% 30.20 in 10.0 mi SSE 5.8 mph - N/A   Drizzle
2:15 AM 42.8 °F 41.1 °F 32.0 °F 66% 30.19 in 10.0 mi SE 3.5 mph - N/A Rain Light Rain
2:35 AM 42.8 °F 41.1 °F 33.8 °F 70% 30.18 in 10.0 mi ESE 3.5 mph - 0.01 in Rain Light Rain
2:55 AM 42.8 °F 39.3 °F 35.6 °F 76% 30.19 in 10.0 mi SE 5.8 mph 9.2 mph 0.02 in Rain Light Rain
3:15 AM 42.8 °F 38.0 °F 35.6 °F 76% 30.19 in 10.0 mi South 8.1 mph 17.3 mph 0.02 in Rain Rain
3:35 AM 41.0 °F 36.4 °F 37.4 °F 87% 30.20 in 10.0 mi ESE 6.9 mph - 0.04 in Rain Rain
3:55 AM 41.0 °F 35.8 °F 37.4 °F 87% 30.21 in 10.0 mi ESE 8.1 mph - 0.07 in Rain Rain
4:15 AM 41.0 °F 34.7 °F 37.4 °F 87% 30.19 in 7.0 mi SE 10.4 mph 16.1 mph 0.04 in Rain Rain
4:35 AM 41.0 °F 35.8 °F 39.2 °F 93% 30.18 in 10.0 mi SSE 8.1 mph - 0.06 in Rain Light Rain
4:55 AM 41.0 °F 34.7 °F 37.4 °F 87% 30.17 in 10.0 mi SE 10.4 mph - 0.08 in Rain Rain
5:15 AM 39.2 °F 33.0 °F 37.4 °F 93% 30.16 in 7.0 mi SE 9.2 mph - 0.04 in Rain Rain
5:35 AM 37.4 °F 30.8 °F 37.4 °F 100% 30.18 in 5.0 mi SE 9.2 mph 16.1 mph 0.11 in Rain Rain
2:55 PM 39.2 °F 31.6 °F 37.4 °F 93% 30.03 in 10.0 mi East 12.7 mph 18.4 mph N/A Rain Light Rain
4:55 PM 39.2 °F 31.2 °F 37.4 °F 93% 29.98 in 10.0 mi ESE 13.8 mph 19.6 mph N/A   Overcast
10:35 PM 35.6 °F 25.9 °F 32.0 °F 87% 29.91 in 10.0 mi ESE 16.1 mph 23.0 mph N/A   Overcast
10:55 PM 35.6 °F 25.5 °F 32.0 °F 87% 29.91 in 10.0 mi ESE 17.3 mph 25.3 mph N/A   Overcast
11:15 PM 35.6 °F 28.0 °F 32.0 °F 87% 29.90 in 10.0 mi ESE 10.4 mph 18.4 mph N/A   Overcast
11:35 PM 35.6 °F 25.5 °F 32.0 °F 87% 29.87 in 10.0 mi ESE 17.3 mph 24.2 mph N/A   Overcast
11:55 PM 35.6 °F 27.1 °F 32.0 °F 87% 29.87 in 10.0 mi ESE 12.7 mph 18.4 mph N/A   Overcast